Regional Weather Roundup
Issued by NWS

Home | Current Version | Previous Version | Text Only | Print | Product List | Glossary On
Versions: 1 2 3 4 5 6 7 8 9 10 11 12 13 14 15 16 17 18 19 20 21 22 23 24 25 26 27 28 29 30 31 32 33 34 35 36 37 38 39 40 41 42 43 44 45 46 47 48 49 50
000
ASUS42 KKEY 261910
RWRKEY

FLORIDA REGIONAL WEATHER ROUNDUP FOR THE FLORIDA KEYS
NATIONAL WEATHER SERVICE KEY WEST FLORIDA
200 PM EST MON JAN 26 2015

...SOUTH FLORIDA AND THE KEYS...

CITY           SKY/WX    TMP DP  RH WIND       PRES   REMARKS
FORT MYERS     PTSUNNY   71  51  49 NW21G28   29.89F
SW REGIONAL AP MOSUNNY   69  49  48 W14G28    29.89F
NAPLES         MOSUNNY   71  52  50 W22G32    29.91F
MIAMI          MOSUNNY   74  56  53 W14G24    29.87F
WEST KENDALL   PTSUNNY   73  59  61 W16G25    29.88F
HOMESTEAD      PTSUNNY   74  58  57 W16G24    29.88F
MARATHON       MOSUNNY   73  64  73 W15G22    29.93F
BOCA CHICA NAS MOSUNNY   75  61  61 NW17G26   29.94F
KEY WEST INTL  SUNNY     73  63  70 NW18      29.95F

...INTERNATIONAL WEATHER...

CITY           SKY/WX    TMP DP  RH WIND       PRES   REMARKS
NASSAU BAHAMAS PTSUNNY   75  55  50 W21       29.89F
CANCUN MEXICO    N/A    N/A N/A N/A MISG        N/A
COZUMEL MEXICO MOSUNNY   77  59  53 N15       30.09F

ADJACENT COASTAL WATERS...

STATION/POSITION TIME  SKY/WX   TEMP    WIND        PRES    WAVE
                                AIR SEA DIR/SP/G            HT/PER
                 (UTC)          (F)     (DEG/KT/KT) (MB)    (FT/S)
PULASKI SHOAL LI NOT AVBL
SAND KEY         NOT AVBL
SOMBRERO KEY     NOT AVBL
LONG KEY         NOT AVBL
MOLASSES REEF    NOT AVBL
FOWEY ROCKS      NOT AVBL
Buoy 42080       NOT AVBL

$$



USA.gov is the U.S. government's official web portal to all federal, state and local government web resources and services.